Regional Weather Roundup
Issued by NWS

Home | Current Version | Previous Version | Graphics & Text | Print | Product List | Glossary On
Versions: 1 2 3 4 5 6 7 8 9 10 11 12 13 14 15 16 17 18 19 20 21 22 23 24 25 26 27 28 29 30 31 32 33 34 35 36 37 38 39 40 41 42 43 44 45 46 47 48 49 50
320
ASUS45 KSLC 260210
RWRUT

UTAH REGIONAL WEATHER ROUNDUP
NATIONAL WEATHER SERVICE SALT LAKE CITY UT
800 PM MDT MON JUL 25 2016

UTZ001>011-023>025-260300-

NORTHERN UTAH

CITY           SKY/WX    TMP DP  RH WIND       PRES   REMARKS
BRIGHAM CITY     N/A     94  19   6 SW3       29.99S
HILL AFB       CLEAR     92  33  12 SE7       30.04S
LOGAN          CLEAR     93  35  13 S6        30.00S
OGDEN          CLEAR     93  29  10 SE6       30.00S
PROVO AIRPORT  PTCLDY    91  45  19 SE14      30.01R
SALT LAKE CITY PTCLDY    97  34  11 N8        29.98S HX  91
VERNAL         CLOUDY    84  40  21 W6        30.12S
WENDOVER       PTCLDY    93  30  10 S3        29.99S
HEBER CITY     PTCLDY    82  37  20 SE6       30.12R

$$

UTZ012>022-026-027-260300-

SOUTHERN/CENTRAL UTAH

CITY           SKY/WX    TMP DP  RH WIND       PRES   REMARKS
BLANDING       MOCLDY    85  35  17 N16G22    30.25R
BRYCE CANYON   CLOUDY    71  41  33 E8        30.39R
CEDAR CITY     PTCLDY    91  37  15 VRB7      30.12R
DELTA          PTCLDY    90  32  12 S16       30.02R
MILFORD        NOT AVBL
MOAB/CYNLANDS  CLOUDY    92  40  16 S8        30.04R
PRICE          PTCLDY    84  34  16 NE8       30.17F
ST GEORGE      PTCLDY   104  46  14 SW14      29.89S HX 100

$$

REGIONAL REPORTS     COLORADO/ARIZONA

CITY           SKY/WX    TMP DP  RH WIND       PRES   REMARKS
CRAIG, CO      CLEAR     80  32  17 W6        30.22R
GRAND JUNCTION PTCLDY    90  39  16 SE18G28   30.07R
RIFLE          CLEAR     88  36  15 S14       30.12R
MONTROSE       CLOUDY    82  42  24 E10       30.20R
CORTEZ         CLOUDY    84  43  23 SE20G26   30.18R
PAGE, AZ       CLOUDY    98  42  14 NE7       30.00S HX  94
GRAND CANYON   CLOUDY    75  43  31 S8        30.28R
KINGMAN        PTCLDY    90  57  32 E25       29.99R
FLAGSTAFF      CLOUDY    57  55  93 VRB6      30.35F

$$

REGIONAL REPORTS    NEVADA/IDAHO/WYOMING

CITY           SKY/WX    TMP DP  RH WIND       PRES   REMARKS
LAS VEGAS, NV  PTCLDY   108  34   8 S7        29.77R HX 101
ELY            PTCLDY    88  20   8 S9        30.13S
ELKO           SUNNY     94   8   4 NW13      30.05S
POCATELLO, ID  CLEAR     89  39  17 W10       30.03S
BURLEY         CLEAR     86  42  21 S6        30.00S
EVANSTON, WY   CLOUDY    82  22  11 W13       30.26S
ROCK SPRINGS   CLOUDY    80  28  15 W12       30.26R
KEMMERER         N/A    N/A N/A N/A W6        30.27R

$$




USA.gov is the U.S. government's official web portal to all federal, state and local government web resources and services.